This is the latest recevied weather packets stored in our database for station/object F5LKO-13. If no packets are shown the sender has not sent any weather packets the latest 10 day(s).
| Time | Temp. | Humidity | Pressure | Rain* | Wind** | Luminosity | Snow |
|---|---|---|---|---|---|---|---|
| 1777452437 | 16.67° C | 99% | 1010.8 hPa | 0.51 mm | - | 1 W/m² | - |
| 1777452131 | 16.67° C | 99% | 1010.7 hPa | 0.51 mm | - | 3 W/m² | - |
| 1777451825 | 17.22° C | 99% | 1010.8 hPa | 0.51 mm | - | 1 W/m² | - |
| 1777451523 | 17.78° C | 99% | 1010.8 hPa | 0.51 mm | - | 2 W/m² | - |
| 1777451221 | 17.22° C | 99% | 1010.8 hPa | 0.51 mm | - | 2 W/m² | - |
| 1777450906 | 16.67° C | 99% | 1010.8 hPa | 0.51 mm | - | 5 W/m² | - |
| 1777450600 | 17.22° C | 99% | 1010.8 hPa | 0.51 mm | - | 5 W/m² | - |
| 1777450294 | 16.67° C | 99% | 1010.8 hPa | 0 mm | - | 5 W/m² | - |
| 1777449988 | 16.67° C | 99% | 1010.8 hPa | 0 mm | - | 4 W/m² | - |
| 1777449682 | 16.11° C | 99% | 1010.8 hPa | 0 mm | - | 7 W/m² | - |
| 1777449384 | 16.11° C | 99% | 1010.8 hPa | 0 mm | - | 5 W/m² | - |
| 1777449069 | 16.11° C | 99% | 1010.8 hPa | 0 mm | - | 3 W/m² | - |
| 1777448763 | 15.56° C | 99% | 1010.8 hPa | 0 mm | - | 2 W/m² | - |
| 1777448457 | 15.56° C | 99% | 1010.9 hPa | 0 mm | - | 1 W/m² | - |
| 1777448151 | 15.56° C | 99% | 1010.9 hPa | 0 mm | - | 1 W/m² | - |
| 1777447845 | 15.56° C | 99% | 1010.9 hPa | 0 mm | - | 0 W/m² | - |
| 1777447547 | 15.56° C | 99% | 1010.9 hPa | 0 mm | - | 0 W/m² | - |
| 1777447232 | 15.56° C | 99% | 1010.8 hPa | 0 mm | - | 0 W/m² | - |
| 1777446927 | 15.56° C | 99% | 1010.8 hPa | 0 mm | - | 1 W/m² | - |
| 1777446621 | 15.56° C | 99% | 1010.8 hPa | 0 mm | - | 0 W/m² | - |
| 1777446315 | 15° C | 99% | 1010.7 hPa | 0 mm | - | 0 W/m² | - |
| 1777446009 | 15° C | 99% | 1010.7 hPa | 0 mm | - | 1 W/m² | - |
| 1777445713 | 15° C | 99% | 1010.6 hPa | 0 mm | - | 0 W/m² | - |
| 1777445398 | 15° C | 99% | 1010.6 hPa | 0 mm | - | 0 W/m² | - |
| 1777445092 | 14.44° C | 99% | 1010.7 hPa | 0 mm | - | 0 W/m² | - |
* Rain latest hour (hover to see other rain measurements)
** Current wind speed in m/s (hover to see current wind gust speed)